カタログに戻る

CZ-4C DEB

運用中LEO
NORAD 43420·DEBRIS·🇨🇳 China

打ち上げ Dec 10, 2014 から Jiuquan Satellite Launch Center

Loading…

次のパス (今後24時間)

TLE

最新Source: Space-Track

元期: Sep 13, 2026, 09:51 UTC

1 43420U 14080J   26256.41067047  .00000964  00000-0  99697-3 0  9998
2 43420  63.3848  42.0197 0370580  12.0832 348.8792 13.54482821566960

AllMySatでCZ-4C DEBをリアルタイム追跡

Download on the App Store